CZ-6A DEB, 60798

Orbit data source: Space-Track

CZ-6A DEB, 60798 is space debris in LEO originally from a launch on Tue, 06 Aug 2024 UTC launched from the Taiyaun Space Center, China (TSC). Debris objects in space refer to the collection of defunct objects orbiting the Earth. Examples of debris include non-operational satellites, rocket bodies, and fragments generated from explosions, collisions, or faulty payload assembly.

Loading next visibility...
Identifier
60798, 2024-140FZ
Orbit
LEO
Country
Flag of CNCN / PRC
Related business
Manufacturer
SAST
Mission
Spacecraft
Bus & Motor
Unknown
Mass
Unknown
Launch date (UTC)
2024-08-06 (2 years ago)
Launch vehicle
Unknown
Launch site
Taiyaun Space Center, China (TSC)
Object type
Payload
Rocket body
Debris
Shape & HBR
Unknown shape, 0.2 m
Radar Cross Section
Medium (>0.1 m² and <1 m²)

Expand to show TLE details & history
Last TLE update: 14 hours ago

TLE from 14 hours ago
0 CZ-6A DEB
1 60798U 24140FZ  26171.28671361  .00000288  00000-0  14350-3 0  9996
2 60798  89.0514 279.1981 0075529 190.2305 169.7349 14.12776864 95610
Epoch: 2026-06-20T06:52Z
TLE epoch observation values (Epoch: 2026-06-20T06:52:52.055Z)
Latitude
-0.00001°
Longitude
-92.52231°
Altitude
906.671 km
Speed
7.371 km/s
True Right ascension
18h 36m 47s
True Declination
0° 00' 00"
Sunlit
Object was in full shadow at epoch
Visualization orbit readout
Latitude
Unknown
Longitude
Unknown
Altitude
Unknown
Speed
Unknown
Apparent Right ascension
Unknown
Apparent Declination
Unknown
Sunlit
N/A
Visualization observer readout
Local Sidereal Time
07:20:13
Azimuth
Unknown
Elevation
Unknown
Doppler factor
Unknown
Orbital elements
Apogee altitude
901.416 km
Perigee altitude
792.276 km
Semi-major axis
7,224.983 km
Eccentricity
0.00755
Inclination
89.0514°
RAAN
279.1981°
Arg. of periapsis
190.2305°
True anomaly
169.88771°
Mean anomaly
169.7349°
Eccentric anomaly
169.81145°
Mean motion
3.53417 °/min
Orbital period
101.86 mins
BSTAR
0.0001435
Loading maneuver chart data...
Computing Atmospheric mass density...
Loading historical data...
Loading historical data...
Loading historical data...
Loading historical data...
Loading historical data...
Loading historical data...
Loading historical data...

Documentation

Showing up to 5 results
|